VOZ500 YBCG-YSSY

Flight info

Callsign VOZ500
Flight time N/A
Altitude 34000
Route APAGI H91 IGDAM/N0447F350 H652 BOREE
Aircraft B738/M-SDE2E3FGHIRWXY/LB1

Departure

Time 2026-05-06 16:58
Airport Gold Coast Airport (YBCG)

Arrival

Time N/A
Airport Sydney Kingsford Smith International Airport (YSSY)
Time Latitude Longitude Altitude Speed Heading
2026-05-06 16:48 -28.16667 153.51195 23 ft 0 kts 63°
2026-05-06 16:51 -28.16672 153.51185 26 ft 2 kts 63°
2026-05-06 16:52 -28.16679 153.51169 25 ft 2 kts 62°
2026-05-06 16:52 -28.16687 153.51152 25 ft 2 kts 61°
2026-05-06 16:52 -28.16695 153.51136 27 ft 2 kts 59°
2026-05-06 16:52 -28.16704 153.51120 25 ft 2 kts 50°
2026-05-06 16:53 -28.16717 153.51109 27 ft 2 kts 339°
2026-05-06 16:53 -28.16730 153.51117 25 ft 0 kts 330°
2026-05-06 16:54 -28.16724 153.51112 22 ft 3 kts 327°
2026-05-06 16:54 -28.16691 153.51092 22 ft 8 kts 332°
2026-05-06 16:55 -28.16623 153.51069 22 ft 12 kts 317°
2026-05-06 16:55 -28.16550 153.51002 23 ft 16 kts 328°
2026-05-06 16:55 -28.16479 153.50905 24 ft 18 kts 258°
2026-05-06 16:55 -28.16438 153.50787 28 ft 19 kts 329°
2026-05-06 16:56 -28.16312 153.50706 26 ft 23 kts 331°
2026-05-06 16:56 -28.16164 153.50612 26 ft 26 kts 330°
2026-05-06 16:56 -28.16058 153.50533 28 ft 13 kts 304°
2026-05-06 16:56 -28.16084 153.50462 28 ft 10 kts 239°
2026-05-06 16:57 -28.16110 153.50391 26 ft 10 kts 277°
2026-05-06 16:57 -28.16133 153.50375 27 ft 4 kts 137°
2026-05-06 16:57 -28.16141 153.50381 26 ft 0 kts 147°
2026-05-06 16:57 -28.16428 153.50565 29 ft 94 kts 151°
2026-05-06 16:58 -28.16913 153.50872 27 ft 147 kts 151°
2026-05-06 16:58 -28.17890 153.51494 688 ft 166 kts 152°
2026-05-06 16:58 -28.18923 153.52141 1708 ft 172 kts 150°
2026-05-06 16:58 -28.20511 153.53028 2453 ft 214 kts 159°
2026-05-06 16:59 -28.21494 153.53450 2620 ft 234 kts 160°
2026-05-06 16:59 -28.23115 153.54121 2908 ft 260 kts 160°
2026-05-06 16:59 -28.24889 153.54697 3643 ft 268 kts 178°
2026-05-06 16:59 -28.26675 153.54391 4727 ft 263 kts 203°
2026-05-06 17:00 -28.28290 153.53370 5709 ft 264 kts 214°
2026-05-06 17:00 -28.29806 153.52210 6603 ft 268 kts 216°
2026-05-06 17:00 -28.31349 153.50993 7473 ft 272 kts 217°
2026-05-06 17:00 -28.32912 153.49755 8350 ft 276 kts 217°
2026-05-06 17:01 -28.34496 153.48504 9237 ft 280 kts 217°
2026-05-06 17:01 -28.36115 153.47230 10100 ft 284 kts 218°
2026-05-06 17:01 -28.37777 153.45923 10596 ft 302 kts 218°
2026-05-06 17:01 -28.39580 153.44505 10796 ft 328 kts 218°
2026-05-06 17:02 -28.41506 153.42996 11292 ft 342 kts 218°
2026-05-06 17:02 -28.43486 153.41451 12046 ft 347 kts 218°
2026-05-06 17:02 -28.45492 153.39891 12830 ft 351 kts 218°
2026-05-06 17:02 -28.47520 153.38312 13576 ft 356 kts 219°
2026-05-06 17:03 -28.49581 153.36708 14310 ft 360 kts 219°
2026-05-06 17:03 -28.51648 153.35097 15077 ft 362 kts 219°
2026-05-06 17:03 -28.53742 153.33466 15815 ft 366 kts 219°
2026-05-06 17:03 -28.55851 153.31820 16518 ft 370 kts 219°
2026-05-06 17:04 -28.57982 153.30157 17198 ft 374 kts 219°
2026-05-06 17:04 -28.60115 153.28493 17838 ft 377 kts 219°
2026-05-06 17:04 -28.62289 153.26796 18528 ft 380 kts 219°
2026-05-06 17:04 -28.64471 153.25090 19136 ft 382 kts 219°
2026-05-06 17:05 -28.66668 153.23374 19727 ft 385 kts 220°
2026-05-06 17:05 -28.68885 153.21639 20309 ft 388 kts 220°
2026-05-06 17:05 -28.71114 153.19894 20918 ft 390 kts 221°
2026-05-06 17:05 -28.73357 153.18137 21492 ft 392 kts 221°
2026-05-06 17:06 -28.75618 153.16365 22052 ft 395 kts 221°
2026-05-06 17:06 -28.77887 153.14585 22594 ft 398 kts 221°
2026-05-06 17:06 -28.80173 153.12792 23141 ft 401 kts 221°
2026-05-06 17:06 -28.82489 153.10974 23657 ft 404 kts 222°
2026-05-06 17:07 -28.84814 153.09148 24098 ft 406 kts 222°
2026-05-06 17:07 -28.87149 153.07314 24542 ft 409 kts 222°
2026-05-06 17:07 -28.89495 153.05470 24973 ft 411 kts 222°
2026-05-06 17:07 -28.91859 153.03611 25411 ft 413 kts 222°
2026-05-06 17:08 -28.94234 153.01741 25833 ft 415 kts 222°
2026-05-06 17:08 -28.96621 152.99862 26250 ft 418 kts 222°
2026-05-06 17:08 -28.98989 152.97997 26654 ft 420 kts 222°
2026-05-06 17:08 -29.01396 152.96098 27048 ft 422 kts 222°
2026-05-06 17:09 -29.03829 152.94179 27453 ft 424 kts 222°
2026-05-06 17:09 -29.06264 152.92258 27842 ft 427 kts 222°
2026-05-06 17:09 -29.08713 152.90324 28216 ft 429 kts 222°
2026-05-06 17:09 -29.11172 152.88381 28592 ft 431 kts 222°
2026-05-06 17:10 -29.13645 152.86426 28946 ft 433 kts 222°
2026-05-06 17:10 -29.16132 152.84458 29306 ft 435 kts 222°
2026-05-06 17:10 -29.18629 152.82482 29732 ft 436 kts 222°
2026-05-06 17:10 -29.21115 152.80516 30272 ft 433 kts 223°
2026-05-06 17:11 -29.23579 152.78568 30820 ft 428 kts 223°
2026-05-06 17:11 -29.26019 152.76638 31358 ft 424 kts 224°
2026-05-06 17:11 -29.28431 152.74728 31844 ft 421 kts 224°
2026-05-06 17:11 -29.30832 152.72822 32290 ft 419 kts 225°
2026-05-06 17:12 -29.33308 152.71037 32731 ft 426 kts 218°
2026-05-06 17:12 -29.36077 152.69697 33178 ft 435 kts 211°
2026-05-06 17:12 -29.38934 152.68542 33610 ft 434 kts 211°
2026-05-06 17:12 -29.41785 152.67413 33998 ft 433 kts 211°
2026-05-06 17:13 -29.44645 152.66276 34039 ft 439 kts 211°
2026-05-06 17:13 -29.50477 152.63920 34072 ft 449 kts 211°
2026-05-06 17:14 -29.56382 152.61505 34071 ft 458 kts 211°
2026-05-06 17:14 -29.62429 152.59023 34076 ft 465 kts 211°
2026-05-06 17:15 -29.68533 152.56519 34077 ft 466 kts 211°
2026-05-06 17:15 -29.74623 152.54015 34076 ft 468 kts 211°
2026-05-06 17:16 -29.80751 152.51491 34082 ft 467 kts 211°
2026-05-06 17:16 -29.86885 152.48958 34078 ft 468 kts 210°
2026-05-06 17:17 -29.93013 152.46425 34081 ft 468 kts 210°
2026-05-06 17:17 -29.99144 152.43886 34076 ft 468 kts 210°
2026-05-06 17:18 -30.05278 152.41345 34079 ft 468 kts 210°
2026-05-06 17:18 -30.11359 152.38821 34079 ft 467 kts 210°
2026-05-06 17:19 -30.17477 152.36277 34079 ft 467 kts 210°
2026-05-06 17:19 -30.23601 152.33729 34092 ft 466 kts 210°
2026-05-06 17:20 -30.29703 152.31187 34080 ft 466 kts 210°
2026-05-06 17:20 -30.35815 152.28633 34079 ft 467 kts 209°
2026-05-06 17:21 -30.41935 152.26075 34078 ft 467 kts 209°
2026-05-06 17:21 -30.48053 152.23516 34078 ft 467 kts 209°
2026-05-06 17:22 -30.54124 152.20972 34081 ft 467 kts 208°
2026-05-06 17:22 -30.60239 152.18406 34071 ft 467 kts 208°
2026-05-06 17:23 -30.66352 152.15838 34065 ft 467 kts 208°
2026-05-06 17:23 -30.72456 152.13271 34070 ft 466 kts 208°
2026-05-06 17:24 -30.78549 152.10704 34070 ft 466 kts 208°
2026-05-06 17:24 -30.84644 152.08131 34066 ft 467 kts 207°
2026-05-06 17:25 -30.90762 152.05547 34066 ft 467 kts 207°
2026-05-06 17:25 -30.96835 152.02978 34073 ft 468 kts 207°
2026-05-06 17:26 -31.02959 152.00384 34068 ft 468 kts 207°
2026-05-06 17:26 -31.09076 151.97791 34077 ft 468 kts 207°
2026-05-06 17:27 -31.15210 151.95186 34088 ft 468 kts 207°
2026-05-06 17:27 -31.21335 151.92582 34085 ft 467 kts 207°
2026-05-06 17:28 -31.27451 151.89977 34070 ft 468 kts 207°
2026-05-06 17:28 -31.33541 151.87379 34079 ft 468 kts 207°
2026-05-06 17:29 -31.39675 151.84758 34076 ft 469 kts 207°
2026-05-06 17:29 -31.45816 151.82132 34063 ft 469 kts 207°
2026-05-06 17:30 -31.51961 151.79502 34061 ft 469 kts 207°
2026-05-06 17:30 -31.58059 151.76887 34064 ft 469 kts 207°
2026-05-06 17:31 -31.64200 151.74249 34071 ft 469 kts 207°
2026-05-06 17:31 -31.70313 151.71622 34063 ft 466 kts 207°
2026-05-06 17:32 -31.76428 151.68986 34065 ft 469 kts 207°
2026-05-06 17:32 -31.82573 151.66335 34059 ft 471 kts 208°
2026-05-06 17:33 -31.88726 151.63677 34055 ft 472 kts 208°
2026-05-06 17:33 -31.94890 151.61012 34066 ft 471 kts 208°
2026-05-06 17:33 -31.97883 151.59724 34039 ft 456 kts 208°
2026-05-06 17:34 -32.00826 151.58460 33796 ft 445 kts 208°
2026-05-06 17:34 -32.03705 151.57219 33526 ft 437 kts 208°
2026-05-06 17:34 -32.06546 151.55987 33267 ft 432 kts 208°
2026-05-06 17:34 -32.09361 151.54761 33001 ft 430 kts 209°
2026-05-06 17:35 -32.12160 151.53540 32734 ft 428 kts 209°
2026-05-06 17:35 -32.14946 151.52324 32492 ft 427 kts 209°
2026-05-06 17:35 -32.17729 151.51110 32238 ft 425 kts 209°
2026-05-06 17:36 -32.23248 151.48706 31594 ft 418 kts 209°
2026-05-06 17:36 -32.25967 151.47522 31197 ft 415 kts 209°
2026-05-06 17:36 -32.28636 151.46359 30790 ft 412 kts 209°
2026-05-06 17:36 -32.31317 151.45189 30390 ft 410 kts 209°
2026-05-06 17:37 -32.33987 151.44022 29966 ft 408 kts 209°
2026-05-06 17:37 -32.36650 151.42857 29502 ft 406 kts 209°
2026-05-06 17:37 -32.39295 151.41700 29040 ft 403 kts 208°
2026-05-06 17:37 -32.41915 151.40555 28640 ft 400 kts 208°
2026-05-06 17:38 -32.44513 151.39418 28212 ft 397 kts 208°
2026-05-06 17:38 -32.47103 151.38284 27796 ft 394 kts 208°
2026-05-06 17:38 -32.49665 151.37160 27380 ft 392 kts 208°
2026-05-06 17:38 -32.52210 151.36044 26969 ft 389 kts 208°
2026-05-06 17:39 -32.54746 151.34931 26559 ft 387 kts 208°
2026-05-06 17:39 -32.57263 151.33825 26173 ft 385 kts 208°
2026-05-06 17:39 -32.59764 151.32725 25770 ft 383 kts 208°
2026-05-06 17:39 -32.62253 151.31631 25375 ft 381 kts 208°
2026-05-06 17:40 -32.64733 151.30540 24980 ft 379 kts 208°
2026-05-06 17:40 -32.67203 151.29452 24591 ft 377 kts 208°
2026-05-06 17:40 -32.69659 151.28370 24200 ft 377 kts 208°
2026-05-06 17:40 -32.72130 151.27278 23793 ft 381 kts 208°
2026-05-06 17:41 -32.74607 151.26179 23354 ft 393 kts 208°
2026-05-06 17:41 -32.77230 151.25010 22905 ft 413 kts 207°
2026-05-06 17:41 -32.79909 151.23821 22423 ft 417 kts 207°
2026-05-06 17:41 -32.82615 151.22630 21965 ft 416 kts 206°
2026-05-06 17:42 -32.85318 151.21443 21508 ft 413 kts 206°
2026-05-06 17:42 -32.88005 151.20261 21059 ft 411 kts 206°
2026-05-06 17:42 -32.90674 151.19085 20617 ft 408 kts 206°
2026-05-06 17:42 -32.93324 151.17914 20192 ft 406 kts 206°
2026-05-06 17:43 -32.95964 151.16744 19766 ft 403 kts 206°
2026-05-06 17:43 -32.98590 151.15579 19328 ft 402 kts 206°
2026-05-06 17:43 -33.01209 151.14416 18903 ft 401 kts 205°
2026-05-06 17:43 -33.03816 151.13257 18480 ft 399 kts 205°
2026-05-06 17:44 -33.06419 151.12100 17981 ft 398 kts 205°
2026-05-06 17:44 -33.09006 151.10951 17516 ft 395 kts 205°
2026-05-06 17:44 -33.11562 151.09814 17078 ft 391 kts 205°
2026-05-06 17:44 -33.14104 151.08682 16648 ft 387 kts 205°
2026-05-06 17:45 -33.15770 151.07939 16368 ft 385 kts 205°
2026-05-06 17:45 -33.19082 151.06463 15810 ft 382 kts 205°
2026-05-06 17:45 -33.21567 151.05356 15391 ft 379 kts 204°
2026-05-06 17:45 -33.24116 151.04528 14968 ft 382 kts 193°
2026-05-06 17:46 -33.25884 151.04368 14699 ft 384 kts 184°
2026-05-06 17:46 -33.28546 151.04450 14306 ft 383 kts 181°
2026-05-06 17:46 -33.31209 151.04584 13891 ft 381 kts 181°
2026-05-06 17:46 -33.33851 151.04725 13445 ft 379 kts 181°
2026-05-06 17:47 -33.36478 151.04859 13009 ft 377 kts 181°
2026-05-06 17:47 -33.39089 151.04982 12576 ft 374 kts 181°
2026-05-06 17:47 -33.41676 151.05096 12169 ft 371 kts 181°
2026-05-06 17:47 -33.44254 151.05204 11753 ft 368 kts 182°
2026-05-06 17:48 -33.46814 151.05307 11352 ft 366 kts 181°
2026-05-06 17:48 -33.49349 151.05408 10949 ft 363 kts 181°
2026-05-06 17:48 -33.51873 151.05507 10557 ft 362 kts 181°
2026-05-06 17:48 -33.54376 151.05606 10297 ft 354 kts 181°
2026-05-06 17:49 -33.56809 151.05704 10144 ft 347 kts 181°
2026-05-06 17:49 -33.59169 151.05797 9964 ft 342 kts 181°
2026-05-06 17:49 -33.61547 151.05891 9593 ft 340 kts 181°
2026-05-06 17:49 -33.63897 151.05984 9227 ft 335 kts 181°
2026-05-06 17:50 -33.66211 151.06075 8873 ft 330 kts 181°
2026-05-06 17:50 -33.68460 151.06164 8550 ft 325 kts 181°
2026-05-06 17:50 -33.70456 151.06243 8236 ft 320 kts 181°
2026-05-06 17:50 -33.72694 151.06332 7916 ft 316 kts 181°
2026-05-06 17:51 -33.74844 151.06416 7603 ft 312 kts 182°
2026-05-06 17:51 -33.77004 151.06501 7276 ft 309 kts 181°
2026-05-06 17:51 -33.79141 151.06587 6969 ft 306 kts 181°
2026-05-06 17:51 -33.81251 151.06672 6644 ft 298 kts 182°
2026-05-06 17:52 -33.83286 151.06754 6308 ft 288 kts 182°
2026-05-06 17:52 -33.85252 151.06833 6002 ft 277 kts 182°
2026-05-06 17:52 -33.87148 151.06909 5704 ft 268 kts 182°
2026-05-06 17:52 -33.88984 151.06981 5368 ft 259 kts 182°
2026-05-06 17:53 -33.90748 151.07286 5088 ft 255 kts 168°
2026-05-06 17:53 -33.92450 151.07892 4838 ft 258 kts 168°
2026-05-06 17:53 -33.94186 151.08511 4530 ft 261 kts 168°
2026-05-06 17:53 -33.95922 151.09136 4233 ft 259 kts 168°
2026-05-06 17:54 -33.97635 151.09765 3989 ft 254 kts 168°
2026-05-06 17:54 -33.99306 151.10388 3905 ft 250 kts 168°
2026-05-06 17:54 -34.00956 151.11013 3741 ft 248 kts 168°
2026-05-06 17:54 -34.02578 151.11642 3640 ft 236 kts 168°
2026-05-06 17:55 -34.04089 151.12246 3517 ft 221 kts 168°
2026-05-06 17:55 -34.05478 151.12833 3378 ft 205 kts 166°
2026-05-06 17:55 -34.06629 151.13824 2980 ft 215 kts 133°
2026-05-06 17:55 -34.07190 151.15514 2658 ft 222 kts 98°
2026-05-06 17:56 -34.06999 151.17323 2347 ft 214 kts 69°
2026-05-06 17:56 -34.06356 151.18866 2032 ft 199 kts 44°